Location: Dorste
(51.7012°N, 10.1533°E)
Time: 07:21:15
(UTC+00:00)

Daily predictions for brighter satellites

Satellite Brightness Start Highest point End
(mag) Time Altitude Azimuth Time Altitude Azimuth Time Altitude Azimuth
Cosmos 1707 Rocket 4.0 19:26:23 10° N 19:30:34 44° ENE 19:34:42 10° SSE
Cosmos 220 Rocket 3.9 19:26:34 10° NNW 19:30:48 79° ENE 19:35:01 10° SSE
Cosmos 1633 3.6 19:28:48 10° SSW 19:32:14 49° WNW 19:35:42 10° N
Cosmos 972 Rocket 4.3 19:27:33 10° NNW 19:32:36 64° WSW 19:37:25 10° S
IRIDIUM 104 4.4 19:27:49 10° SSE 19:32:57 62° E 19:38:07 10° N
Resurs 01 Rocket 1.7 19:29:26 10° SSE 19:33:50 72° ENE 19:38:17 10° N
Landsat 7 4.5 19:31:00 10° SE 19:35:26 40° ENE 19:39:52 10° N
Cosmos 1441 Rocket 3.5 19:35:48 10° S 19:39:26 46° E 19:43:05 10° NNE
Cosmos 2360 4.4 19:35:49 10° NNW 19:41:34 66° NE 19:47:16 10° SE
IRIDIUM 114 4.3 19:36:54 10° S 19:42:05 73° E 19:47:19 10° N
Cosmos 614 Rocket 4.2 19:38:10 10° S 19:43:08 49° ESE 19:48:10 10° NNE
IGS 5A 4.0 19:41:34 10° SE 19:45:30 44° ENE 19:49:28 10° N
Cosmos 1900 4.3 19:41:26 10° SSW 19:46:21 71° SE 19:51:24 10° NE
USA 267 3.5 19:40:50 10° ENE 19:47:07 47° SE 19:53:23 10° SSW
GP-B 4.0 19:45:01 10° NNE 19:49:03 33° E 19:53:04 10° SSE
IRIDIUM 103 4.3 19:46:01 10° S 19:51:14 86° E 19:56:30 10° N
Cosmos 1821 Rocket 4.0 19:47:24 10° S 19:53:28 70° E 19:59:41 10° NNE
Cosmos 921 Rocket 4.1 19:50:49 10° N 19:54:36 30° ENE 19:58:03 11° ESE
CZ-2C R/B 3.8 19:50:25 10° NNE 19:55:06 90° ESE 19:59:40 10° SSW
COSMOS 2406 3.2 19:49:48 10° SSW 19:55:30 68° ESE 20:01:13 10° NE
SL-16 R/B 3.6 19:52:11 10° NNW 19:57:03 28° NE 20:01:53 10° E
Cosmos 1862 Rocket 4.2 19:52:49 10° N 19:57:06 42° ENE 20:01:01 12° SE
Intercosmos 25 3.6 19:52:10 10° NNW 19:57:09 78° W 20:00:37 10° S
ERS-1 Rocket 3.7 19:56:08 11° SE 20:00:36 40° ENE 20:05:17 10° N
Lacrosse 5 2.5 19:55:41 10° WNW 20:00:41 55° NNE 20:05:41 10° E
Cosmos 2369 3.8 19:56:38 10° NNW 20:02:24 83° WSW 20:08:05 10° SSE
Cosmos 1862 3.7 20:00:43 10° SSW 20:04:45 69° WNW 20:08:49 10° N
Sich 1 3.0 20:01:13 10° S 20:05:38 79° E 20:10:06 10° NNE
Cosmos 1818 4.1 20:01:51 10° NW 20:07:11 56° WSW 20:12:24 10° SSE
BREEZE-M DEB (TANK) 1.9 20:05:46 10° WSW 20:08:38 48° S 20:09:54 18° ESE
Cosmos 2082 Rocket 2.6 20:05:26 10° S 20:10:42 40° ESE 20:15:59 10° NE
Cosmos 2278 3.7 20:05:57 10° NNW 20:11:43 83° ENE 20:16:44 14° SSE
Cosmos 2123 Rocket 4.0 20:05:31 10° N 20:11:45 75° ENE 20:17:59 10° SSE
Meteor 2-20 4.5 20:07:19 10° N 20:13:33 87° E 20:19:42 10° S
Spot 2 Rocket 3.5 20:11:26 10° SSE 20:16:33 87° ENE 20:21:42 10° NNW
Meteor 1-4 Rocket 2.4 20:16:04 10° NNW 20:19:35 89° WSW 20:22:26 14° S
Cosmos 2322 Rocket 3.4 20:14:32 10° NNW 20:19:37 32° NE 20:24:25 11° ESE
CZ-2C R/B 4.0 20:17:50 10° N 20:22:38 40° WNW 20:27:27 10° SW
Cosmos 1184 Rocket 3.3 20:21:01 17° SSE 20:23:11 39° E 20:26:18 10° NNE
CARTOSAT-1 3.8 20:20:05 16° SE 20:23:21 55° ENE 20:27:36 10° N
Cosmos 1190 Rocket 4.0 20:18:14 10° S 20:23:26 64° ESE 20:28:43 10° NNE
USA 234 3.4 20:18:46 14° SE 20:24:27 70° SW 20:31:00 10° WNW
Terra 2.5 20:21:08 16° SE 20:24:32 40° ENE 20:28:59 10° N
Cosmos 407 Rocket 3.5 20:21:04 10° SSW 20:26:23 80° ESE 20:31:42 10° NNE
Cosmos 1933 Rocket 4.4 20:24:16 17° SE 20:26:53 32° E 20:30:50 10° NNE
Cosmos 1605 Rocket 4.2 20:21:08 10° SSE 20:26:57 51° E 20:32:49 10° NNE
Cosmos 1666 Rocket 3.5 20:22:55 10° S 20:27:14 87° E 20:31:36 10° N
Okean 1 4.0 20:25:16 10° N 20:29:06 40° ENE 20:31:27 20° SE
Cosmos 1238 Rocket 3.1 20:28:02 23° SE 20:29:06 29° E 20:31:44 10° NNE
Meteor 1-27 Rocket 4.4 20:24:21 10° NNW 20:30:09 60° W 20:35:59 10° S
Cosmos 1437 Rocket 3.8 20:30:09 10° N 20:33:35 31° ENE 20:35:27 20° ESE
Cosmos 2360 Rocket 3.8 20:28:56 10° NNW 20:33:39 26° NE 20:38:20 10° E
CZ-4B DEB 4.3 20:35:36 22° SSE 20:37:38 80° ENE 20:41:00 10° NNW
ERBS 3.4 20:35:07 10° W 20:38:20 44° NNW 20:41:32 10° ENE
Meteor 1-19 Rocket 4.4 20:33:18 10° N 20:38:37 52° ENE 20:42:13 20° SE
SPOT 5 2.6 20:35:55 20° SSE 20:38:49 67° ENE 20:43:10 10° N
USA 238 DEB 4.1 20:33:19 10° S 20:39:21 39° ESE 20:45:39 10° NE
USA 238 4.1 20:33:27 10° S 20:39:28 39° ESE 20:45:44 10° NE
Cosmos 1980 Rocket 2.4 20:37:11 10° NW 20:42:52 69° WSW 20:47:05 18° SSE
SPOT 1/Viking Rocket 3.8 20:39:53 13° S 20:44:29 69° WSW 20:49:44 10° NNW
Cosmos 1703 Rocket 4.0 20:40:35 10° N 20:44:49 46° ENE 20:47:05 24° SE
Cosmos 2242 Rocket 3.7 20:40:26 10° N 20:44:52 61° ENE 20:47:29 23° SSE
Cosmos 1763 Rocket 3.8 20:42:32 10° NNW 20:47:48 56° ENE 20:51:08 22° SE
Genesis I 3.6 20:44:55 10° NW 20:48:42 53° SW 20:50:44 25° SSE
SL-4 R/B 2.1 20:45:22 10° SW 20:49:00 40° SSE 20:51:35 16° E
BREEZE-M DEB (TANK) 2.7 20:46:38 10° WSW 20:49:35 67° S 20:58:06 10° E
Cosmos 405 Rocket 3.0 20:49:22 27° SSE 20:50:57 45° E 20:54:32 10° NNE
ATLAS 5 CENTAUR R/B 4.2 20:47:02 10° WNW 20:51:21 21° WSW 20:56:06 10° SSW
Cosmos 1140 Rocket 3.6 20:46:48 10° SSW 20:52:03 83° WNW 20:57:21 10° NNE
Cosmos 2333 Rocket 4.3 20:49:16 10° NNW 20:53:30 20° NNE 20:57:43 10° ENE
USA 32 4.1 20:53:02 12° S 20:57:59 85° W 21:03:16 10° N
Cosmos 1697 Rocket 4.1 20:53:22 10° NW 20:58:15 32° WSW 21:03:04 10° SSW
Cosmos 1633 Rocket 3.8 20:56:15 10° SSW 21:00:36 54° WNW 21:04:59 10° N
Cosmos 1833 Rocket 3.2 20:55:47 10° SW 21:01:21 63° NW 21:06:58 10° NNE
Meteor 1-18 Rocket 4.2 21:00:39 10° NNW 21:06:18 90° WSW 21:09:50 24° S
Okean 1-7 3.1 21:02:12 10° N 21:06:32 66° ENE 21:08:30 31° SSE
Cosmos 1867 3.5 21:02:17 10° SSW 21:07:42 70° SE 21:13:09 10° NE
Cosmos 1153 Rocket 4.5 21:03:26 20° S 21:07:47 65° E 21:13:54 10° NNE
CENTAUR R/B 3.1 21:04:46 22° SSE 21:07:55 36° ESE 21:14:10 10° NE
Resurs 01 Rocket 4.2 21:08:08 10° SW 21:10:51 16° W 21:13:35 10° NW
Okean 3 4.4 21:08:33 10° N 21:12:30 34° ENE 21:13:59 27° ESE
FALCON 9 DEB 3.3 21:11:20 10° SW 21:14:42 47° SSE 21:15:22 41° ESE
Meteor 2-4 Rocket 3.8 21:10:16 10° N 21:15:59 65° ENE 21:18:54 29° SSE
Cosmos 1850 Rocket 4.3 21:14:18 27° SSE 21:16:46 46° ESE 21:21:48 10° NE
Cosmos 1515 3.6 21:13:06 10° N 21:16:58 88° E 21:18:23 38° SSE
SL-27 R/B 3.8 21:19:37 23° E 21:19:37 23° E 21:21:40 10° NE
Cosmos 44 3.6 21:15:38 10° NW 21:20:25 60° NE 21:23:09 26° ESE
ATLAS 5 CENTAUR R/B 2.0 21:18:23 10° NW 21:20:49 62° NE 21:23:25 24° ESE
Cosmos 676 Rocket 4.2 21:15:39 10° SSW 21:20:58 76° WNW 21:26:22 10° NNE
SWARM C 4.4 21:18:40 10° N 21:22:01 84° E 21:22:48 50° S
SWARM A 4.1 21:18:45 10° N 21:22:06 88° W 21:22:58 48° S
Meteor 1-25 Rocket 4.4 21:17:53 12° SSW 21:23:07 73° WNW 21:28:46 10° N
Cosmos 1470 Rocket 4.2 21:19:31 13° SSW 21:23:19 56° WNW 21:27:40 10° N
USA 267 3.4 21:23:53 10° ENE 21:30:28 80° NNW 21:37:00 10° WSW
Cosmos 921 Rocket 4.1 21:29:03 10° NW 21:32:57 35° WSW 21:34:51 23° SSW
NOSS 3-2 (A) 3.3 21:27:58 10° SW 21:33:45 75° SE 21:40:27 10° NE
ERS-1 Rocket 4.2 21:36:09 17° SSW 21:39:28 35° W 21:44:05 10° NNW
NOSS 3-2 (C) 3.5 21:35:51 21° SSW 21:39:42 56° SE 21:46:09 10° NE
Cosmos 841 Rocket 3.5 21:34:35 10° NNW 21:39:50 78° ENE 21:42:00 36° SE
Cosmos 540 Rocket 3.5 21:36:05 10° NNW 21:41:17 77° ENE 21:43:22 37° SE
SL-16 R/B 2.2 21:36:04 10° NNW 21:41:46 77° WSW 21:44:17 34° SSE
Cosmos 468 Rocket 4.5 21:38:11 10° NNW 21:43:22 52° WSW 21:45:45 30° SSW
Lacrosse 5 1.9 21:38:47 10° WNW 21:43:48 64° SW 21:45:31 39° SSE
Cosmos 1570 Rocket 4.0 21:45:46 10° NNW 21:51:07 86° WSW 21:53:10 39° SSE
Cosmos 1741 Rocket 3.9 21:48:23 29° SSW 21:51:07 80° ESE 21:56:27 10° NNE
Tsikada Rocket 4.3 21:45:48 10° N 21:52:05 56° ENE 21:54:55 32° SE
Cosmos 2219 Rocket 3.5 21:47:41 10° NNW 21:52:50 33° NE 21:56:38 16° E
Cosmos 2208 Rocket 3.9 21:47:54 10° NNW 21:53:14 85° ENE 21:55:11 40° SSE
Cosmos 1814 Rocket 3.9 21:48:22 10° NNW 21:53:37 82° ENE 21:55:32 40° SSE
Cosmos 2082 Rocket 3.3 21:49:19 10° WSW 21:54:47 45° NW 22:00:14 10° NNE
Cosmos 2237 4.2 21:52:27 10° NNW 21:58:12 78° ENE 22:00:34 37° SE
Cosmos 2084 Rocket 4.1 21:59:01 36° E 21:59:01 36° E 22:02:21 10° ENE
Terra 3.1 22:00:02 21° SW 22:02:22 32° W 22:06:38 10° NNW
Cosmos 2322 Rocket 2.3 21:58:27 10° NW 22:04:06 65° WSW 22:06:13 38° S
EO 1 Del DPAF 3.9 22:01:36 10° NNE 22:04:57 38° E 22:04:57 38° E
USA 234 4.5 22:06:06 21° SSW 22:08:15 25° SW 22:13:30 10° WNW
Cosmos 2100 Rocket 4.0 22:05:35 27° SSW 22:09:06 75° W 22:15:18 10° N
Cosmos 1437 Rocket 4.3 22:06:33 10° NW 22:09:45 26° W 22:10:50 22° WSW
Meteor 1-11 Rocket 3.8 22:09:09 41° SSE 22:11:06 66° E 22:16:48 10° NNE
Cosmos 1242 Rocket 2.8 22:08:27 10° N 22:12:00 53° ENE 22:12:07 53° E
Cosmos 1869 Rocket 4.0 22:13:01 34° SW 22:14:42 58° WNW 22:19:08 10° N
ERBS 4.1 22:12:06 10° WNW 22:15:07 31° N 22:18:08 10° ENE
Cosmos 2360 Rocket 2.1 22:12:39 10° NNW 22:18:23 86° WSW 22:20:20 43° SSE
COSMOS 2428 3.6 22:13:54 10° NNW 22:19:23 43° NE 22:22:37 23° ESE
Geosat 4.5 22:20:48 39° SSW 22:22:07 48° WSW 22:27:01 10° NW
ATLAS 3B R/B 2.9 22:21:12 38° SSE 22:22:49 45° ESE 22:29:04 10° NE
Iridium 4 Rocket 3.7 22:21:45 34° SW 22:23:11 47° W 22:27:17 10° N
Cosmos 2173 Rocket 4.3 22:21:11 26° SSW 22:24:44 63° WNW 22:30:50 10° N
CRYOSAT 2 4.3 22:20:26 10° N 22:25:21 82° W 22:26:46 47° SSW
Cosmos 1980 Rocket 4.5 22:23:22 10° WNW 22:25:48 13° W 22:28:13 10° WSW
Cosmos 1500 4.2 22:25:10 33° WSW 22:26:06 40° WNW 22:29:41 10° N
SL-4 R/B 2.5 22:24:41 10° W 22:27:13 40° W 22:27:13 40° W
ALOS 2 2.6 22:27:44 57° SE 22:28:31 74° ENE 22:32:55 10° N
Cosmos 1725 Rocket 3.9 22:27:19 38° S 22:29:57 86° E 22:36:20 10° N
USA 238 DEB 4.0 22:23:20 10° WSW 22:30:01 66° NW 22:37:01 10° NE
USA 238 4.0 22:23:27 10° WSW 22:30:07 67° NW 22:37:07 10° NE
Cosmos 1674 Rocket 3.4 22:28:17 10° N 22:32:38 80° E 22:33:13 65° SSE
SL-08 R/B 4.4 22:32:18 38° SSW 22:34:48 86° W 22:40:57 10° N
Cosmos 1536 2.6 22:34:39 75° SSW 22:34:58 87° W 22:38:59 10° N
Cosmos 1666 2.7 22:37:32 63° WSW 22:37:46 65° WNW 22:41:31 10° N
Cosmos 1743 3.5 22:38:17 40° E 22:38:17 40° E 22:41:46 10° NNE
Cosmos 2333 Rocket 2.5 22:33:10 10° NNW 22:38:56 65° NE 22:41:19 35° SE
Cosmos 1271 Rocket 2.9 22:37:00 10° N 22:40:43 57° ENE 22:40:47 57° E
Cosmos 1356 3.7 22:41:30 63° NW 22:41:30 63° NW 22:44:46 10° N
Cosmos 2016 Rocket 4.2 22:39:51 32° SSW 22:42:56 68° WNW 22:49:20 10° N
Cosmos 2237 Rocket 3.7 22:37:57 10° NNW 22:42:58 31° NE 22:47:32 12° ESE
MOS 1-B Rocket 4.1 22:38:13 10° N 22:43:55 63° WNW 22:46:43 30° SW
Cosmos 2061 Rocket 4.2 22:41:23 32° SSW 22:44:20 66° WNW 22:50:32 10° N
Lacrosse 4 Rocket 2.5 22:45:23 31° E 22:45:23 31° E 22:48:25 10° NE
Cosmos 2221 Rocket 4.5 22:41:25 10° NNW 22:45:35 39° W 22:46:29 35° WSW
Cosmos 1733 Rocket 3.1 22:50:59 57° SW 22:51:43 71° WNW 22:56:09 10° N
Cosmos 1066 Rocket 4.4 22:46:25 10° NNW 22:52:06 64° W 22:53:46 44° SSW
Meteor 1-23 Rocket 4.4 22:48:08 10° NNW 22:53:55 65° W 22:55:42 43° SSW
SL-27 R/B 4.1 22:53:08 24° W 22:53:55 27° WNW 22:56:49 10° N
Thor Agena Rocket 3.7 22:50:09 10° N 22:55:11 65° WNW 22:57:00 39° SW
Cosmos 44 Rocket 3.8 22:50:27 10° NW 22:55:21 59° NE 22:57:31 32° ESE
Cosmos 836 Rocket 4.4 22:51:32 10° NNW 22:56:48 87° ENE 22:58:03 53° SSE
CENTAUR R/B 2.9 22:51:55 10° WSW 22:58:08 69° NW 23:05:35 10° NE
Cosmos 968 Rocket 3.7 22:59:01 46° SE 22:59:35 49° ESE 23:04:32 10° NNE
Cosmos 44 4.4 22:57:11 10° WNW 23:01:26 30° WSW 23:01:33 30° WSW
Cosmos 1975 3.7 23:02:22 37° E 23:02:22 37° E 23:06:01 10° NNE
SL-24 DEB 4.3 22:59:45 10° N 23:04:33 69° E 23:05:18 58° SE
Cosmos 1782 Rocket 4.1 23:10:37 43° ESE 23:10:51 44° E 23:15:00 10° NNE
Cosmos 1378 3.7 23:09:04 10° NNW 23:12:29 48° W 23:12:29 48° W
USA 267 3.9 23:06:50 10° ENE 23:13:12 57° N 23:19:35 10° W
Cosmos 1707 4.2 23:12:09 10° N 23:15:36 29° ENE 23:16:13 27° E
Cosmos 2233 Rocket 4.1 23:14:31 38° SSW 23:17:01 69° WNW 23:23:21 10° N
Cosmos 1464 Rocket 4.3 23:15:36 39° SE 23:17:36 55° E 23:23:38 10° NNE
Cosmos 1842 3.2 23:13:41 10° N 23:17:39 73° ENE 23:17:41 73° E
Cosmos 1908 Rocket 3.4 23:18:33 74° S 23:18:57 89° ESE 23:23:21 10° N
Cosmos 2344 4.5 23:10:44 10° NW 23:19:35 71° NE 23:31:49 10° ESE
Helios 1B rocket 3.9 23:18:18 10° NE 23:21:46 26° E 23:21:48 26° E
Meteor 1-21 4.3 23:17:39 10° N 23:23:31 76° ENE 23:25:22 45° SSE
Cosmos 2227 Rocket 4.2 23:22:42 14° ESE 23:23:54 15° E 23:26:53 10° ENE
SL-16 R/B 4.2 23:21:56 10° WNW 23:24:55 15° W 23:26:08 14° WSW
Lacrosse 5 3.9 23:22:53 10° W 23:24:41 15° WSW 23:24:41 15° WSW
Cosmos 1378 Rocket 4.4 23:24:16 10° NNW 23:28:25 38° W 23:28:49 37° WSW
Cosmos 2322 4.0 23:23:05 10° NW 23:28:32 49° WSW 23:29:31 44° SW
NOSS 3-2 (C) 4.4 23:24:56 10° WSW 23:30:47 49° NNW 23:37:34 10° NE
Cosmos 1833 4.3 23:28:45 38° SW 23:30:56 72° WNW 23:36:38 10° NNE
COSMOS 2487 3.2 23:32:14 47° NW 23:32:14 47° NW 23:35:27 10° NNE
Nadezhda 4 Rocket 4.2 23:29:14 10° N 23:35:33 67° ENE 23:38:03 38° SSE
Cosmos 2219 Rocket 2.3 23:31:33 10° NW 23:37:09 60° WSW 23:38:19 49° SSW
Cosmos 2084 Rocket 4.5 23:35:30 22° W 23:37:49 43° NNW 23:42:00 10° NE
Cosmos 783 Rocket 4.4 23:35:51 10° NNW 23:41:07 85° WSW 23:42:23 53° SSE
Cosmos 1975 Rocket 3.0 23:37:28 10° NNW 23:41:58 76° W 23:42:25 68° SSW
Cosmos 1513 Rocket 4.5 23:42:38 44° S 23:44:52 84° E 23:51:20 10° N
Cosmos 1437 4.2 23:42:14 10° N 23:44:31 31° NE 23:44:31 31° NE
Okean 2 Rocket 3.8 23:45:22 39° ESE 23:46:00 41° E 23:50:15 10° NNE
Cosmos 2034 Rocket 4.2 23:43:53 40° SSE 23:46:04 63° E 23:52:19 10° NNE
Cosmos 2322 Rocket 4.3 23:45:02 10° WNW 23:47:02 12° W 23:48:01 11° WSW
Cosmos 1503 Rocket 4.0 23:45:55 54° S 23:47:11 79° ESE 23:52:35 10° NNE
YAOGAN 11 4.4 23:48:26 52° WSW 23:48:52 55° W 23:53:23 10° NNW
Cosmos 1072 Rocket 4.4 23:46:51 45° SSW 23:48:53 88° WNW 23:55:02 10° N
Landsat 4 3.7 23:45:28 10° NNE 23:49:12 74° E 23:49:12 74° E
Cosmos 1092 Rocket 4.4 23:43:35 10° N 23:49:45 56° ENE 23:52:45 30° SE
Helios 1A 3.6 23:49:49 42° W 23:49:49 42° W 23:53:52 10° NNW
SL-16 R/B 3.6 23:46:15 15° ESE 23:51:05 41° ENE 23:56:52 10° N
ERBS 3.2 23:48:31 10° WNW 23:51:02 45° NNW 23:51:02 45° NNW
CZ-2D R/B 4.0 23:48:27 10° NE 23:52:33 21° E 23:54:54 16° ESE
Cosmos 1300 Rocket 4.1 23:52:28 42° ESE 23:52:59 44° E 23:57:05 10° NNE
SL-16 R/B 3.6 23:47:56 10° NNW 23:53:13 37° NE 23:58:28 10° ESE
Cosmos 1486 Rocket 4.3 23:52:11 39° WSW 23:53:56 59° WNW 23:59:06 10° NNE
Cosmos 1544 3.7 23:54:38 46° WNW 23:54:38 46° WNW 23:58:07 10° N
